ヒル彗星

P/2008 T4 ( Hill )

English version
Home page
Updated on August 25, 2017

---------------------------------------------------------------------

・ プロフィール

発見日 2008年10月8日
発見光度 17.9等
発見者 R. E. Hill (Catalina Sky Survey)

・ 写真集

・ 軌道要素

Epoch 2009 Jan. 9.0 TT = JDT 2454840.5
T 2008 Dec. 23.95167 TT                                 MPCW
q   2.5117179            (2000.0)            P               Q
n   0.10510799     Peri.    1.25916     +0.69547200     -0.71436310
a   4.4467792      Node    44.68350     +0.65829273     +0.59020399
e   0.4351602      Incl.    6.32638     +0.28804406     +0.37595825
P   9.38
From 253 observations 2008 Sept. 28-2017 Aug. 18, mean residual 0".5.

・ 光度変化

        m1 = 12.5 + 5 logΔ + 10.0 log r

---------------------------------------------------------------------

軌道要素はM.P.E.C. 2017-Q47に掲載されたものです。
光度グラフはComet for Windowsで作成したものです。

---------------------------------------------------------------------

Copyright(C) Seiichi Yoshida (comet@aerith.net). All rights reserved.